Погода в Большой Гриве

Россия / Томская область     58°55′31″N   80°14′18″E
темп.,
°C
ветер,
м/с
пор.,
м/с
влажн.,
%
обл.,
%
осадки,
мм/ч
давл.,
гПа
погр.,
м
27 февраля, сб
сб2701:00−31з229991 0.1 103019
04:00−33зюз239878 0.0 103026
07:00−34зюз239853 0.0 103128
10:00−32юз249848 0.0 1032117
13:00−26юз249566 0.0 1032294
16:00−23юз359396 0.0 1032448
19:00−24юз239798 0.1 103234
22:00−27юз239868 0.0 103342
28 февраля, вс
вс2801:00−28юз239836 0.0 103365
04:00−29юз239855 0.0 103334
07:00−30ююз239844 0.0 103327
10:00−30ю259743 0.0 1033133
13:00−25ююв239553 0.0 1032250
16:00−21юв249495 0.0 1030328
19:00−24вюв239794 0.0 102943
22:00−25вюв379886 0.0 1027147
1 марта, пн
пн101:00−27в369889 0.0 1025122
04:00−27в399762 0.0 1023209
07:00−26всв4119679 0.0 1022262
10:00−25всв4109496 0.0 1021315
13:00−21всв499495 0.0 1019341
16:00−18всв4109081 0.0 1019430
19:00−19всв4119275 0.0 1019384
22:00−21всв4119387 0.0 1019378
2 марта, вт
вт201:00−23всв3109493 0.0 1020290
04:00−25всв389692 0.0 1020225
07:00−26в379591 0.0 1021244
10:00−24в3895100 0.0 1021269
13:00−21в379498 0.0 1021336
16:00−18в479085 0.0 1020401
19:00−20в389474 0.0 1020232
22:00−21в3109665 0.0 1020264
3 марта, ср
ср301:00−23в379764 0.0 1020146
04:00−25в369936 0.0 1019123
07:00−27в259819 0.0 1020106
10:00−25в37960 0.0 1021224
13:00−21в369526 0.0 1021291
16:00−19в369234 0.0 1021359
19:00−21в239517 0.0 102362
22:00−24вюв36960 0.0 1024109